Weather History for Worland, WY

Change the Weather History Date:

Sunday, January 27, 2013

  Actual Average Record
Temperature  
Mean Temperature 26 °F 18 °F  
Max Temperature 38 °F 32 °F 52 °F (1971)
Min Temperature 14 °F 5 °F -24 °F (2009)
Degree Days  
Heating Degree Days 39 47  
Month to date heating degree days 1381 1300  
Since 1 July heating degree days 4123 4663  
Cooling Degree Days 0 0  
Month to date cooling degree days 0 0  
Year to date cooling degree days 0 0  
Moisture  
Dew Point 26 °F    
Average Humidity 85    
Maximum Humidity 100    
Minimum Humidity 70    
Precipitation  
Precipitation 0.05 in 0.01 in 0.06 in (1982)
Month to date precipitation 0.09 0.20  
Year to date precipitation 0.09 0.20  
Sea Level Pressure  
Sea Level Pressure 29.76 in    
Wind  
Wind Speed 5 mph (WNW)    
Max Wind Speed 15 mph    
Max Gust Speed 26 mph    
Visibility 6 miles    
Events Snow    
T = Trace of Precipitation, MM = Missing Value Source: NWS Daily Summary

Daily Weather History Graph

Daily Weather History Graph

Search for Another Location

Airport:

Trip Planner

Search our weather history database for the weather conditions in past years. The results will help you decide how hot, cold, wet, or windy it might be!

Date:

Astronomy

Jan. 27, 2013 Rise Set
Actual Time 7:33 AM MST 5:15 PM MST
Civil Twilight 7:02 AM MST 5:46 PM MST
Nautical Twilight 6:28 AM MST 6:21 PM MST
Astronomical Twilight 5:54 AM MST 6:55 PM MST
Moon 6:16 PM MST (1/27) 7:25 AM MST (1/27)
Length of Visible Light 10h 44m
Length of Day
9h 41m
Full, 100% of the Moon is Illuminated
Jan 27
Full
Feb 3
Last Quarter
Feb 10
New
Feb 17
First Quarter
Feb 25
Full

Hourly Weather History & Observations

Time (MST) Temp. Windchill Dew Point Humidity Pressure Visibility Wind Dir Wind Speed Gust Speed Precip Events Conditions
12:53 AM 21.0 °F 14.6 °F 18.0 °F 88% 29.79 in 10.0 mi East 4.6 mph - N/A   Clear
1:53 AM 21.0 °F - 19.9 °F 96% 29.77 in 10.0 mi Calm Calm - N/A   Clear
2:53 AM 21.0 °F - 19.0 °F 92% 29.75 in 10.0 mi Calm Calm - N/A   Clear
3:53 AM 18.0 °F - 17.1 °F 96% 29.77 in 10.0 mi Calm Calm - N/A   Clear
5:53 AM 18.0 °F 9.8 °F 17.1 °F 96% 29.80 in 10.0 mi South 5.8 mph - N/A   Clear
6:53 AM 16.0 °F - 15.1 °F 96% 29.83 in 10.0 mi Calm Calm - N/A   Clear
7:53 AM 14.0 °F - 12.0 °F 92% 29.86 in 10.0 mi Calm Calm - N/A   Clear
8:53 AM 18.0 °F 11.1 °F 17.1 °F 96% 29.87 in 10.0 mi South 4.6 mph - N/A   Mostly Cloudy
9:53 AM 21.9 °F 17.2 °F 19.9 °F 92% 29.86 in 10.0 mi South 3.5 mph - N/A   Clear
10:53 AM 30.9 °F - 26.1 °F 82% 29.85 in 10.0 mi Calm Calm - N/A   Clear
11:53 AM 35.1 °F - 27.0 °F 72% 29.80 in 10.0 mi Calm Calm - N/A   Clear
12:46 PM 35.6 °F 30.7 °F 28.4 °F 75% 29.70 in 10.0 mi NE 5.8 mph - N/A   Mostly Cloudy
12:53 PM 35.1 °F 30.1 °F 28.0 °F 76% 29.80 in 10.0 mi ENE 5.8 mph - N/A   Overcast
1:25 PM 37.4 °F 33.8 °F 28.4 °F 70% 29.68 in 10.0 mi NE 4.6 mph - N/A   Scattered Clouds
1:53 PM 36.0 °F 31.1 °F 28.9 °F 76% 29.77 in 10.0 mi ENE 5.8 mph - N/A   Partly Cloudy
2:08 PM 35.6 °F 30.7 °F 28.4 °F 75% 29.67 in 10.0 mi NE 5.8 mph - N/A   Mostly Cloudy
2:31 PM 37.4 °F 32.1 °F 30.2 °F 75% 29.67 in 10.0 mi NNW 6.9 mph - N/A   Scattered Clouds
2:53 PM 37.0 °F 31.6 °F 30.0 °F 76% 29.76 in 10.0 mi North 6.9 mph - N/A   Partly Cloudy
3:33 PM 35.6 °F 28.6 °F 30.2 °F 81% 29.65 in 10.0 mi North 9.2 mph - N/A   Mostly Cloudy
3:53 PM 35.1 °F 27.4 °F 30.0 °F 82% 29.75 in 10.0 mi NNW 10.4 mph - N/A   Overcast
4:09 PM 35.6 °F 28.0 °F 30.2 °F 81% 29.65 in 10.0 mi NNW 10.4 mph - N/A   Overcast
4:46 PM 33.8 °F 26.4 °F 28.4 °F 81% 29.65 in 10.0 mi NNW 9.2 mph - N/A   Overcast
4:53 PM 34.0 °F 28.0 °F 28.0 °F 79% 29.75 in 10.0 mi NNW 6.9 mph - N/A   Overcast
5:53 PM 33.1 °F 24.9 °F 28.9 °F 85% 29.78 in 10.0 mi NNW 10.4 mph - N/A   Overcast
6:37 PM 30.2 °F 20.8 °F 28.4 °F 93% 29.68 in 2.5 mi WNW 11.5 mph - 0.00 in Snow Light Snow
6:49 PM 30.2 °F 20.8 °F 28.4 °F 93% 29.70 in 1.5 mi WNW 11.5 mph - 0.00 in Snow Light Snow
6:53 PM 30.9 °F 22.2 °F 28.9 °F 92% 29.82 in 1.2 mi WNW 10.4 mph - 0.00 in Snow Light Snow
7:05 PM 30.2 °F 20.8 °F 28.4 °F 93% 29.70 in 0.8 mi WNW 11.5 mph - 0.01 in Snow Light Snow
7:14 PM 30.2 °F 20.2 °F 28.4 °F 93% 29.71 in 0.8 mi WNW 12.7 mph - 0.01 in Snow Light Snow
7:37 PM 30.2 °F 20.8 °F 28.4 °F 93% 29.72 in 1.8 mi WNW 11.5 mph - 0.02 in Snow Light Snow
7:39 PM 30.2 °F 20.8 °F 28.4 °F 93% 29.72 in 2.0 mi WNW 11.5 mph - 0.02 in Snow Light Snow
7:48 PM 30.2 °F 19.8 °F 28.4 °F 93% 29.72 in 3.0 mi NW 13.8 mph - 0.02 in Snow Light Snow
7:53 PM 30.0 °F 20.0 °F 27.0 °F 88% 29.87 in 3.0 mi WNW 12.7 mph - 0.02 in Snow Light Snow
8:06 PM 28.4 °F 19.1 °F 26.6 °F 93% 29.73 in 4.0 mi WNW 10.4 mph - 0.00 in Snow Light Snow
8:21 PM 28.4 °F 19.7 °F 26.6 °F 93% 29.74 in 1.8 mi WNW 9.2 mph - 0.00 in Snow Light Snow
8:42 PM 28.4 °F 21.2 °F 26.6 °F 93% 29.74 in 1.2 mi NW 6.9 mph - 0.00 in Snow Light Snow
8:49 PM 28.4 °F 22.2 °F 26.6 °F 93% 29.74 in 1.0 mi NW 5.8 mph - 0.01 in Snow Light Snow
8:53 PM 28.9 °F 21.9 °F 27.0 °F 92% 29.87 in 1.0 mi NW 6.9 mph - 0.01 in Snow Light Snow
9:10 PM 28.4 °F 22.2 °F 26.6 °F 93% 29.74 in 3.0 mi WNW 5.8 mph - 0.00 in Snow Light Snow
9:53 PM 28.9 °F 22.8 °F 26.1 °F 89% 29.85 in 2.0 mi WNW 5.8 mph - 0.00 in Snow Light Snow
10:02 PM 28.4 °F 22.2 °F 26.6 °F 93% 29.74 in 1.8 mi West 5.8 mph - 0.01 in Snow Light Snow
10:35 PM 28.4 °F 22.2 °F 26.6 °F 93% 29.75 in 2.5 mi WSW 5.8 mph - 0.01 in Snow Light Snow
10:42 PM 28.4 °F 23.3 °F 26.6 °F 93% 29.75 in 3.0 mi SW 4.6 mph - 0.01 in Snow Light Snow
10:53 PM 28.0 °F 21.7 °F 26.1 °F 92% 29.84 in 1.8 mi SW 5.8 mph - 0.01 in Snow Light Snow
10:58 PM 28.4 °F 22.2 °F 26.6 °F 93% 29.75 in 2.0 mi SW 5.8 mph - 0.01 in Snow Light Snow
11:05 PM 28.4 °F 22.2 °F 26.6 °F 93% 29.75 in 3.0 mi SW 5.8 mph - 0.01 in Snow Light Snow
11:33 PM 28.4 °F 23.3 °F 26.6 °F 93% 29.75 in 2.0 mi WSW 4.6 mph - 0.01 in Snow Light Snow
11:51 PM 28.4 °F 23.3 °F 26.6 °F 93% 29.76 in 3.0 mi WSW 4.6 mph - 0.01 in Snow Light Snow
11:53 PM 28.0 °F 22.8 °F 26.1 °F 92% 29.84 in 4.0 mi WSW 4.6 mph - 0.01 in Snow Light Snow